{"data":{"norad_id":52700,"epoch":"2026-09-20T05:16:30.694944Z","epoch_age_seconds":90733,"freshness":"FRESH","line1":"1 52700U 22053AW  26263.21979971  .00001644  00000+0  59776-4 0  9992","line2":"2 52700  53.1602 349.0855 0001042  69.4907 290.6207 15.34402687240540","mean_motion":15.34402687,"eccentricity":0.0001042,"inclination_deg":53.1602,"raan_deg":349.0855,"arg_perigee_deg":69.4907,"mean_anomaly_deg":290.6207,"bstar":5.9776e-5,"rev_number":24054,"period_min":93.847593737953,"perigee_km":461.98243916764,"apogee_km":463.40806860935,"semimajor_km":6840.8322538885,"source":"CELESTRAK","updated_at":"2026-09-20T09:00:40.108600Z"}}